Flag for U.S.A. Weather past 2 weeks in Myrtle Beach, South Carolina, U.S.A.

Now
73 °F

Clear.


Feels Like: 74 °F
Forecast: 76 / 89 °F
Wind: 7 mph from West

Location: Myrtle Beach Air Force Base

Current Time: Jul 1, 2015 at 3:01:33 AM

Latest Report: Jul 1, 2015 at 2:15 AM


Visibility: 10 mi

Pressure: 29.99 "Hg

Humidity: 78%

Dew point: 66 °F

Location of Myrtle BeachLocation

Historic Weather in Myrtle Beach — Graph

°F

Myrtle Beach temperature yesterday

Maximum temperature yesterday: 91 °F (at 12:45 PM)
Minimum temperature yesterday: 75 °F (at 2:55 AM)
Average temperature yesterday: 80 °F

Past Weeks' High & Low Weather Summary

 TemperatureHumidityPressure
High99 °F (Jun 16, 12:45 PM)89% (Jun 24, 11:35 PM)30.14 "Hg (Jun 24, 11:35 PM)
Low73 °F (Jun 24, 11:35 PM)39% (Jun 16, 12:45 PM)29.83 "Hg (Jun 27, 5:47 PM)
Average83 °F71%30.02 "Hg
* Reported Jun 16 1:15 AM — Jul 1 1:55 AM, Myrtle Beach, Weather by CustomWeather, © 2015

Note: Actual official high and low records may vary slightly from our data, if they occured in-between our weather recording intervals... More about our weather records

Advertising

Myrtle Beach weather history for previous 24 hours

 ConditionsComfort  
Time TempWeatherWind HumidityBarometerVisibility
1:55 AM
Wed, Jul 1
73 °FClear.6 mph78%29.99 "Hg10 mi
1:35 AM73 °FClear.6 mph78%30.00 "Hg10 mi
1:15 AM75 °FClear.8 mph74%30.00 "Hg10 mi
12:55 AM75 °FClear.7 mph74%30.01 "Hg10 mi
12:15 AM75 °FClear.5 mph74%29.99 "Hg10 mi
11:55 PM
Tue, Jun 30
75 °FClear.3 mph74%30.00 "Hg10 mi
11:35 PM77 °FClear.5 mph69%30.00 "Hg10 mi
10:55 PM75 °FClear.6 mph69%30.01 "Hg10 mi
9:47 PM75 °FPassing clouds.6 mph69%29.97 "Hg10 mi
8:45 PM79 °FScattered clouds.12 mph58%30.00 "Hg10 mi
7:45 PM84 °FScattered clouds.15 mph62%29.98 "Hg10 mi
6:45 PM84 °FSunny.20 mph66%29.95 "Hg10 mi
5:45 PM88 °FSunny.20 mph59%29.96 "Hg10 mi
4:45 PM88 °FSunny.15 mph62%29.96 "Hg10 mi
3:45 PM88 °FScattered clouds.14 mph62%29.96 "Hg10 mi
2:45 PM88 °FScattered clouds.14 mph62%29.97 "Hg10 mi
1:45 PM90 °FScattered clouds.14 mph52%29.99 "Hg10 mi
12:45 PM91 °FSunny.7 mph41%30.02 "Hg10 mi
11:45 AM90 °FSunny.7 mph46%30.03 "Hg10 mi
10:45 AM88 °FSunny.6 mph49%30.03 "Hg10 mi
9:45 AM84 °FSunny.7 mph55%30.03 "Hg10 mi
8:45 AM81 °FSunny.12 mph62%30.03 "Hg10 mi
7:45 AM79 °FSunny.12 mph65%30.02 "Hg10 mi
6:45 AM75 °FClear.7 mph74%30.00 "Hg10 mi
5:55 AM75 °FClear.6 mph74%29.99 "Hg10 mi
5:35 AM75 °FClear.7 mph74%29.98 "Hg10 mi
5:15 AM75 °FClear.8 mph74%29.98 "Hg10 mi
4:55 AM75 °FClear.8 mph74%29.98 "Hg10 mi
4:35 AM75 °FClear.8 mph74%29.99 "Hg10 mi
4:15 AM75 °FClear.8 mph78%29.99 "Hg10 mi
3:55 AM75 °FClear.9 mph78%29.99 "Hg10 mi
3:35 AM75 °FClear.8 mph78%29.99 "Hg10 mi
3:15 AM75 °FClear.8 mph78%29.99 "Hg10 mi
Weather by CustomWeather, © 2015

See weather overviewHow to use our weather pages